DELTA 1 DEB, 21342

Orbit data source: Space-Track

DELTA 1 DEB, 21342 is space debris in SSO originally from a launch on Thu, 12 Jun 1975 UTC launched from the Air Force Western Test Range (AFWTR). Debris objects in space refer to the collection of defunct objects orbiting the Earth. Examples of debris include non-operational satellites, rocket bodies, and fragments generated from explosions, collisions, or faulty payload assembly.

Loading next visibility...
Identifier
21342, 1975-052BL
Orbit
SSO
Country
Flag of USUS
Related business
Manufacturer
Unknown
Mission
Spacecraft
Bus & Motor
Unknown
Mass
Unknown
Launch date (UTC)
1975-06-12 (51 years ago)
Launch vehicle
Unknown
Launch site
Air Force Western Test Range (AFWTR)
Object type
Payload
Rocket body
Debris
Shape & HBR
Unknown shape, 0.1 m
Radar Cross Section
Small (<0.1 m²)

Expand to show TLE details & history
Last TLE update: 2 days ago

TLE from 2 days ago
0 DELTA 1 DEB
1 21342U 75052BL  25345.18418466  .00007536  00000-0  22756-2 0  9993
2 21342  99.9946 327.3431 0125064  95.8701  34.2293 14.38323802778224
Epoch: 2025-12-11T04:25Z
TLE epoch observation values (Epoch: 2025-12-11T04:25:13.554Z)
Latitude
48.19226°
Longitude
12.19518°
Altitude
698.008 km
Speed
7.55 km/s
True Right ascension
10h 34m 34s
True Declination
48° 01' 12"
Sunlit
Object was in daylight at epoch
Visualization orbit readout
Latitude
Unknown
Longitude
Unknown
Altitude
Unknown
Speed
Unknown
Apparent Right ascension
Unknown
Apparent Declination
Unknown
Sunlit
N/A
Visualization observer readout
Local Sidereal Time
00:31:18
Azimuth
Unknown
Elevation
Unknown
Doppler factor
Unknown
Orbital elements
Apogee altitude
850.53 km
Perigee altitude
671.954 km
Semi-major axis
7,139.379 km
Eccentricity
0.01251
Inclination
99.9946°
RAAN
327.3431°
Arg. of periapsis
95.8701°
True anomaly
35.04597°
Mean anomaly
34.2293°
Eccentric anomaly
34.63657°
Mean motion
3.59793 °/min
Orbital period
100.06 mins
BSTAR
0.0022756
Loading maneuver chart data...
Computing Atmospheric mass density...
Loading historical data...
Loading historical data...
Loading historical data...
Loading historical data...
Loading historical data...
Loading historical data...
Loading historical data...

Documentation

Showing up to 5 results
|